Sigfox identifier Datetime Temperature Humidity SNR
003BC681 2018-10-09 09:12:56 20.3 43 17.9
003BC681 2018-10-09 08:11:22 20.2 41 18.1
003BC681 2018-10-09 07:09:47 20.2 40 18.2
003BC681 2018-10-09 06:08:11 20.2 40 18.3
003BC681 2018-10-09 05:06:36 20.2 40 18.5
003BC681 2018-10-09 02:01:56 20.2 40 18.9
003BC681 2018-10-09 01:00:21 20.1 40 19.1
003BC681 2018-10-08 23:58:47 20.1 40 19.1
003BC681 2018-10-08 22:57:12 20.1 40 19.4
003BC681 2018-10-08 21:55:41 20 40 19.4
003BC681 2018-10-08 20:54:06 20 40 19.7
003BC681 2018-10-08 19:52:32 20 40 19.9
003BC681 2018-10-08 18:50:59 20 40 20.2
003BC681 2018-10-08 17:49:24 20 40 20.3
003BC681 2018-10-08 16:47:50 19.9 39 20.6
003BC681 2018-10-08 15:46:12 19.8 39 20.4
003BC681 2018-10-08 14:44:41 19.8 38 20.3
003BC681 2018-10-08 13:43:04 19.7 37 20.4
003BC681 2018-10-08 10:38:16 19.6 37 20.6
003BC681 2018-10-08 09:36:44 19.6 37 20.7
003BC681 2018-10-08 08:35:09 19.7 38 20.5
003BC681 2018-10-08 07:33:35 19.7 39 20.5
003BC681 2018-10-08 06:32:00 19.7 39 20.6
003BC681 2018-10-08 05:30:25 19.8 39 20.6
003BC681 2018-10-08 04:28:53 19.8 40 20.8
003BC681 2018-10-08 03:27:17 19.8 40 20.9
003BC681 2018-10-08 02:25:44 19.8 40 20.9
003BC681 2018-10-08 01:24:12 19.9 40 20.8
003BC681 2018-10-08 00:22:38 19.9 40 20.8
003BC681 2018-10-07 23:21:04 19.9 40 20.8
003BC681 2018-10-07 22:19:32 19.9 40 20.9
003BC681 2018-10-07 21:17:57 19.9 40 20.9
003BC681 2018-10-07 20:16:23 20 40 21
003BC681 2018-10-07 19:14:49 20 40 20.9
003BC681 2018-10-07 18:13:16 20 40 20.9
003BC681 2018-10-07 17:11:40 20 40 21
003BC681 2018-10-07 16:10:06 20 40 20.7
003BC681 2018-10-07 15:08:30 20 40 20.5
003BC681 2018-10-07 14:06:57 20 40 20.5
003BC681 2018-10-07 13:05:22 20.1 40 20.1
003BC681 2018-10-07 12:03:50 20.1 40 20.3
003BC681 2018-10-07 11:02:18 20.2 41 20.3
003BC681 2018-10-07 10:00:39 20.2 41 20.1
003BC681 2018-10-07 08:59:07 20.2 41 20.1
003BC681 2018-10-07 07:57:34 20.2 41 20.1
003BC681 2018-10-07 06:55:59 20.2 41 20.1
003BC681 2018-10-07 05:54:24 20.2 41 20
003BC681 2018-10-07 04:52:46 20.2 41 20
003BC681 2018-10-07 03:51:11 20.3 41 20
003BC681 2018-10-07 02:49:34 20.3 41 19.9
003BC681 2018-10-07 01:48:00 20.3 41 19.8
003BC681 2018-10-07 00:46:26 20.4 41 19.6
003BC681 2018-10-06 23:44:51 20.4 41 19.4
003BC681 2018-10-06 22:43:16 20.4 41 19.4
003BC681 2018-10-06 21:41:47 20.4 41 19.1
003BC681 2018-10-06 20:40:10 20.4 41 19.3
003BC681 2018-10-06 19:38:35 20.4 41 19.1
003BC681 2018-10-06 18:37:02 20.4 41 19.1
003BC681 2018-10-06 17:35:30 20.4 41 19.1
003BC681 2018-10-06 16:33:56 20.4 41 19.4
003BC681 2018-10-06 15:32:21 20.4 41 19.1
003BC681 2018-10-06 14:30:47 20.4 41 19.1
003BC681 2018-10-06 13:29:11 20.4 41 19.1
003BC681 2018-10-06 12:27:38 20.4 41 19
003BC681 2018-10-06 11:26:04 20.5 41 19
003BC681 2018-10-06 10:24:30 20.5 41 18.7
003BC681 2018-10-06 09:22:55 20.5 41 18.8
003BC681 2018-10-06 08:21:21 20.6 41 18.8
003BC681 2018-10-06 07:19:44 20.6 41 18.7
003BC681 2018-10-06 06:18:08 20.6 41 18.9
003BC681 2018-10-06 05:16:34 20.6 41 19.2
003BC681 2018-10-06 04:15:01 20.6 41 19.1
003BC681 2018-10-06 03:13:27 20.6 41 19.4
003BC681 2018-10-06 02:11:56 20.6 41 19.4
003BC681 2018-10-06 01:10:24 20.6 41 19.2
003BC681 2018-10-06 00:08:50 20.6 41 19.1
003BC681 2018-10-05 23:07:17 20.6 42 19.3
003BC681 2018-10-05 22:05:43 20.6 42 19.4
003BC681 2018-10-05 21:04:08 20.6 42 19.5
003BC681 2018-10-05 20:02:34 20.6 42 19.6
003BC681 2018-10-05 19:00:58 20.6 43 19.1
003BC681 2018-10-05 17:59:21 20.6 43 20.7
003BC681 2018-10-05 16:57:46 20.6 43 20.7
003BC681 2018-10-05 15:56:10 20.6 42 20.6
003BC681 2018-10-05 14:54:39 20.5 42 20.3
003BC681 2018-10-05 13:53:04 20.5 41 20.3
003BC681 2018-10-05 12:51:28 20.5 39 20.3
003BC681 2018-10-05 11:49:55 20.6 39 20.5
003BC681 2018-10-05 10:48:24 20.4 37 20.9
003BC681 2018-10-05 08:45:18 20.3 33 21.2
003BC681 2018-10-05 07:43:42 20.2 32 21.5
003BC681 2018-10-05 06:42:10 20.3 31 21.5
003BC681 2018-10-05 05:40:38 20.4 31 21.8
003BC681 2018-10-05 04:39:03 20.4 31 21.9
003BC681 2018-10-05 03:37:27 20.4 31 21.9
003BC681 2018-10-05 02:35:53 20.4 31 22
003BC681 2018-10-05 01:34:19 20.4 32 22.5
003BC681 2018-10-05 00:32:47 20.6 32 22.3
003BC681 2018-10-04 23:31:13 20.6 32 22.5
003BC681 2018-10-04 22:29:38 20.6 31 22.4
003BC681 2018-10-04 21:28:04 20.6 31 22.5
003BC681 2018-10-04 20:26:31 20.6 30 22.5
003BC681 2018-10-04 19:24:57 20.6 30 22.8
003BC681 2018-10-04 18:23:24 20.5 29 22.8
003BC681 2018-10-04 17:21:49 20.5 29 22.8
003BC681 2018-10-04 15:18:42 20.4 29 22.7
003BC681 2018-10-04 14:17:12 20.4 29 21.7
003BC681 2018-10-04 13:15:37 20.4 29 21.7
003BC681 2018-10-04 12:14:02 20.3 29 21.7
003BC681 2018-10-04 11:12:28 20.2 30 21.7
003BC681 2018-10-04 10:10:53 20.2 31 21.7
003BC681 2018-10-04 09:09:19 20.1 32 21.8
003BC681 2018-10-04 08:07:43 20 34 21.6
003BC681 2018-10-04 07:06:10 20.2 35 21.3
003BC681 2018-10-04 06:04:36 20.2 36 21.1
003BC681 2018-10-04 05:03:00 20.2 36 20.8
003BC681 2018-10-04 04:01:27 20.2 37 20.7
003BC681 2018-10-04 02:59:53 20.2 37 20.2
003BC681 2018-10-04 01:58:19 20.2 38 20.2
003BC681 2018-10-04 00:56:50 20.3 38 20.1
003BC681 2018-10-03 23:55:16 20.4 39 19.8
003BC681 2018-10-03 22:53:42 20.4 39 19
003BC681 2018-10-03 21:52:09 20.4 40 19.1
003BC681 2018-10-03 20:50:35 20.4 40 18.4
003BC681 2018-10-03 19:49:00 20.4 40 18.3
003BC681 2018-10-03 18:47:26 20.4 41 17.8
003BC681 2018-10-03 17:45:56 20.4 41 17.8
003BC681 2018-10-03 16:44:20 20.4 42 17
003BC681 2018-10-03 15:42:51 20.4 41 16.6
003BC681 2018-10-03 14:41:17 20.4 42 16.7
003BC681 2018-10-03 13:39:41 20.4 41 16.9
003BC681 2018-10-03 12:38:04 20.4 40 16.9
003BC681 2018-10-03 11:36:33 20.5 40 17
003BC681 2018-10-03 10:34:55 20.6 39 17
003BC681 2018-10-03 09:33:21 20.4 38 17
003BC681 2018-10-03 08:31:43 20.4 38 17.2
003BC681 2018-10-03 07:30:06 20.4 39 17.1
003BC681 2018-10-03 06:28:30 20.4 39 17.3
003BC681 2018-10-03 05:26:55 20.4 40 16.9
003BC681 2018-10-03 04:25:21 20.4 40 16.6
003BC681 2018-10-03 03:23:46 20.5 40 16.7
003BC681 2018-10-03 02:22:13 20.6 40 17
003BC681 2018-10-03 01:20:39 20.6 40 17.3
003BC681 2018-10-03 00:19:03 20.6 40 16.3
003BC681 2018-10-02 23:17:27 20.6 40 16
003BC681 2018-10-02 22:15:51 20.6 40 16.2
003BC681 2018-10-02 21:14:16 20.6 39 15.7
003BC681 2018-10-02 20:12:43 20.7 39 15.1
003BC681 2018-10-02 19:11:06 20.7 39 15.7
003BC681 2018-10-02 18:09:26 20.8 39 16.3
003BC681 2018-10-02 17:07:45 20.8 40 17.2
003BC681 2018-10-02 16:06:03 20.8 39 14.1
003BC681 2018-10-02 15:04:25 20.9 38 13.1
003BC681 2018-10-02 13:00:55 20.8 39 14.3
003BC681 2018-10-02 11:59:14 20.7 52 0